Regional Weather Roundup
Issued by NWS Upton, NY

Current Version | Previous Version | Text Only | Print | Product List | Glossary On
Versions: 1 2 3 4 5 6 7 8 9 10 11 12 13 14 15 16 17 18 19 20 21 22 23 24 25 26 27 28
000
ASUS41 KOKX 300704
RWROKX

REGIONAL WEATHER ROUNDUP
NATIONAL WEATHER SERVICE NEW YORK NY
300 AM EDT SAT JUL 30 2016

NOTE: "FAIR" INDICATES FEW OR NO CLOUDS BELOW 12,000 FEET WITH NO
SIGNIFICANT WEATHER AND/OR OBSTRUCTIONS TO VISIBILITY.

NYZ071-072-176-178-NJZ106-104-300800-
NEW YORK CITY METRO AREA

CITY           SKY/WX    TMP DP  RH WIND       PRES   REMARKS
Central Park   CLOUDY    76  70  82 CALM      29.96S
LaGuardia APRT CLOUDY    78  70  76 S3        29.93R
Kennedy INTL   MOCLDY    74  70  87 SW8       29.94S
Newark/Liberty CLOUDY    76  68  76 W6        29.93S
Bronx Bot Gard   N/A     73  68  83 E1        29.95R
Wall St Helipt CLOUDY    75  72  88 SW5       29.94S
Teterboro      CLOUDY    74  67  78 NW3       29.92S
$$

NYZ177-179-078>081-300800-
LONG ISLAND NEW YORK

CITY           SKY/WX    TMP DP  RH WIND       PRES   REMARKS
Farmingdale    PTCLDY    74  70  87 S5        29.94S
MacArthur/ISP  CLEAR     72  70  93 SW5       29.93S
Shirley        CLEAR     68  68 100 CALM      29.94F FOG
Riverhead      NOT AVBL
Westhampton    CLEAR     65  63  93 CALM      29.96S FOG
Southhampton     N/A     68  66  94 CALM      29.91S
Bridgehampton    N/A     66  64  94 CALM      29.94R
East Hampton   FAIR      64  63  96 CALM      29.94S
Montauk          N/A     72  69  90 W3        29.95S
$$

NYZ052-065-067-300800-
HUDSON VALLEY

CITY           SKY/WX    TMP DP  RH WIND       PRES   REMARKS
White Plains   CLOUDY    70  68  93 CALM      29.94S
Newburgh       CLEAR     70  66  88 CALM      29.98R
Montgomery     FOG       69  68  96 CALM      29.96S VSB 1/4
Poughkeepsie   CLEAR     70  65  84 CALM      29.95R
Albany         PTCLDY    67  59  75 NW3       29.98S
$$

NJZ001-105-106-008-010-013-015-019>022-104-300800-
NEW JERSEY

CITY           SKY/WX    TMP DP  RH WIND       PRES   REMARKS
Newark/Liberty CLOUDY    76  68  76 W6        29.93S
Teterboro      CLOUDY    74  67  78 NW3       29.92S
Caldwell       CLEAR     71  69  93 CALM      29.95R
Morristown     CLEAR     66  63  88 CALM      29.95R FOG
Somerville     CLEAR     70  68  93 CALM      29.93S FOG
Linden         FAIR      76  68  78 CALM      29.96R
Sussex         LGT RAIN  67  67 100 CALM      29.97R VSB 1/4
Abdover          N/A     66  65  96 CALM      29.97S
Trenton        MOCLDY    74  71  91 CALM      29.95R FOG
Millville      CLEAR     72  70  93 CALM      29.95S
Atlantic City  CLEAR     73  69  87 S3        29.94F
Wrightstown    NOT AVBL
Toms River     CLEAR     68  67  96 SW3       29.95F
Belmar         CLOUDY    71  69  93 SW5       29.96S
$$

PAZ047>061-062-071-300800-
EASTERN PENNSYLVANIA

CITY           SKY/WX    TMP DP  RH WIND       PRES   REMARKS
Philadelphia   PTCLDY    76  71  85 CALM      29.95R
Allentown      CLOUDY    73  69  87 CALM      29.96S
Scranton       MOCLDY    70  63  78 SE3       29.98S
$$

CTZ002-004>006-009-010-012-RIZ004-006-007-MAZ004-011-015-300800-
SOUTHERN NEW ENGLAND
 IN CT

CITY           SKY/WX    TMP DP  RH WIND       PRES   REMARKS
Bradley INTL   CLEAR     69  66  90 N7        29.96R
Hartford       CLEAR     74  69  85 N5        29.94R
Danbury        CLOUDY    67  65  93 SW3       29.97R
Wtrbury/Oxford   N/A     70  64  83 CALM      29.98S
Bridgeport     CLOUDY    73  70  90 CALM      29.93S
Meriden        CLEAR     70  66  87 CALM      29.95R
New Haven      CLEAR     69  68  96 CALM      29.94S
Chester        FAIR      68  68 100 CALM      29.96R
Groton         CLEAR     71  67  87 CALM      29.93S
Wilimantic     PTCLDY    69  69 100 CALM      29.95S FOG

 IN RI

CITY           SKY/WX    TMP DP  RH WIND       PRES   REMARKS
Providence     CLEAR     71  66  84 CALM      29.94R
Block Island   CLEAR     69  66  90 W7        29.94S
Westerly       CLEAR     70  65  84 CALM      29.94S
 IN MA

CITY           SKY/WX    TMP DP  RH WIND       PRES   REMARKS
Boston         PTCLDY    73  67  81 NW6       29.93S
Worchester     CLEAR     70  61  73 NW6       29.98S
Westfield      CLEAR     67  64  90 N5        29.96R
Provincetown   CLOUDY    68  68 100 N8        29.93R
Nantucket      CLOUDY    71  68  90 N8        29.91S
$$

ANZ330-335-338-340-345-350-353-355-300800-
COASTAL MARINE OBSERVATIONS


STATION/POSITION TIME  SKY/WX   TEMP    WIND        PRES    VSBY  WAVE
                                AIR SEA DIR/SP/G                  HT/PER
                 (UTC)          (F)     (DEG/KT/KT) (MB)    (MI)  (FT/S)
NY HARB ENTRANCE 0550            73 72  240/  4/  4 1013.5          3/ 6
20S FIRE ISLAND  0550            74 73  220/  4/  4 1013.4          3/ 6
GREAT SOUTH BAY  0600            75 81  220/  8/ 10   N/A
23 SSW MONTAUK P 0550            71 70  270/  6/  6 1014.0          3/ 7
15 E BARNEGAT LI 0600               78                N/A           3/ 6
HUDSON CANYON    0550            76 77              1013.5          3/ 6
KINGS POINT      0600            75 75              1013.3
EXECUTION ROCKS  0600            75     170/  2/  4   N/A
CENTRAL LI SOUND 0600            75 75  230/ 10/ 10   N/A           0
EASTERN LI SOUND 0600            70 69  290/  2/  8   N/A
ROBBINS REEF     0606            76     240/  5/  5 1012.9
$$


>>>>>>>>>>>>>>>>>>>>>>>>>>>> KEY <<<<<<<<<<<<<<<<<<<<<<<<<<<
>                                                          <
>     SKY/WX - Sky Condition/Present Weather               <
>     TMP    - Temperature in Fahrenheit                   <
>     DP     - Dew Point in Fahrenheit                     <
>     RH     - Relative Humidity in Percent                <
>     WIND   - Direction (from) and Speed in MPH           <
>     PRES   - Mean Sea Level Pressure (inches of Hg)      <
>     WCI    - Wind Chill Index                            <
>     VSB    - VISIBILITY IN MILES                         <
>     HX     - HEAT INDEX                                  <
>     TC     - TEMPERATURE IN CELSIUS                      <
>     VRB    - VARIABLE WIND DIRECTION                     <
>                                                          <
>>>>>>>>>>>>>>>>>>>>>>>>>>>> KEY <<<<<<<<<<<<<<<<<<<<<<<<<<<




USA.gov is the U.S. government's official web portal to all federal, state and local government web resources and services.